[[{"header":{"parameterUnit":"m.s-1","parameterCategory":1,"la1":30.2991,"la2":30.254,"lo1":-89.0895,"lo2":-89.0444,"dy":0.0017,"dx":0.0017,"nx":28,"ny":28,"refTime":"2024-04-30T09:00:00:Z","depth":0,"parameterNumber":2,"parameterNumberName":"U-component_of_WINDS"},"data":[0,0,0,0,0,0,0,0,0,0,0,0,0,0,0,0,0,0,0,0,0,0,0,0,0,0,0,0,0,0,0,0,0,0,0,0,0,0,0,0,0,0,0,0,0,0,0,0,0,0,0,0,0,0,0,0,0,0,-1.3427,-1.3428,0,-1.3472,-1.3473,-1.3473,-1.3475,-1.3475,-1.3474,-1.3474,-1.3522,-1.3524,-1.3525,0,0,0,0,0,0,0,0,0,0,0,0,0,-1.3347,-1.3348,-1.3427,-1.3428,-1.3428,-1.3472,-1.3473,-1.3473,-1.3476,-1.3475,-1.3474,-1.3474,-1.3521,-1.3524,-1.3526,0,0,0,0,0,0,0,0,0,0,0,0,0,-1.3386,-1.3349,-1.3427,-1.3435,-1.3436,-1.3472,-1.3473,-1.3473,-1.3476,-1.3475,-1.3474,-1.3473,-1.3521,-1.3523,-1.3526,-1.3558,0,0,-1.3534,-1.3535,0,0,0,0,0,0,0,0,-1.3383,-1.3389,-1.3433,-1.3434,-1.3435,-1.3467,-1.3462,-1.3502,-1.3476,-1.3461,-1.3474,-1.3473,-1.3505,-1.3509,-1.3519,-1.356,-1.3562,-1.3534,-1.3536,-1.3537,-1.3538,0,0,0,0,0,0,0,-1.3381,-1.3387,-1.3445,-1.3434,-1.3435,-1.3437,-1.3442,-1.3469,-1.3487,-1.3462,-1.3462,-1.3467,-1.3505,-1.3516,-1.352,-1.3563,-1.3534,-1.3537,-1.3538,-1.3539,-1.3635,-1.3636,0,0,0,0,0,0,-1.3376,-1.3384,-1.3443,-1.3446,-1.3407,-1.3439,-1.3444,-1.3458,-1.3486,-1.349,-1.3468,-1.3467,-1.3512,-1.3517,-1.3522,-1.3562,-1.3537,-1.354,-1.3541,-1.3634,-1.3636,-1.3637,0,0,0,0,0,0,-1.3374,-1.3381,-1.3442,-1.3415,-1.3423,-1.3441,-1.3457,-1.3459,-1.347,-1.3491,-1.3494,-1.3476,-1.3512,-1.3518,-1.3549,-1.3564,-1.3541,-1.3543,-1.3633,-1.3635,-1.3636,-1.3642,0,0,0,0,0,0,-1.3372,-1.3381,-1.3392,-1.3416,-1.3425,-1.3467,-1.3457,-1.3461,-1.3474,-1.3474,-1.3499,-1.3502,-1.3511,-1.3545,-1.3552,-1.3567,-1.3545,-1.3632,-1.3634,-1.3636,-1.3641,-1.3644,-1.3646,0,0,0,0,0,-1.3369,-1.3392,-1.3393,-1.34,-1.3439,-1.3468,-1.3473,-1.3483,-1.3476,-1.3488,-1.3502,-1.3502,-1.3561,-1.3548,-1.3556,-1.3572,-1.3631,-1.3633,-1.3636,-1.364,-1.3643,-1.3646,0,0,0,0,0,0,-1.337,-1.3395,-1.3396,-1.3427,-1.3446,-1.3469,-1.3484,-1.3486,-1.3507,-1.3506,-1.3517,-1.3523,-1.3554,-1.3566,-1.3552,-1.3606,-1.3596,-1.3599,-1.3596,-1.36,-1.3602,-1.3599,-1.3547,0,0,0,0,0,-1.3374,-1.3394,-1.3416,-1.3441,-1.345,-1.3466,-1.3479,-1.3485,-1.3504,-1.3512,-1.3528,-1.3548,-1.3571,-1.3586,-1.3609,-1.3643,-1.3649,-1.3658,-1.3661,-1.3663,-1.3666,-1.3686,-1.3691,-1.3644,-1.3644,-1.3644,0,0,-1.3382,-1.3398,-1.3411,-1.3442,-1.3457,-1.3479,-1.3472,-1.3496,-1.3513,-1.3516,-1.3546,-1.3559,-1.3582,-1.3616,-1.3631,-1.3627,-1.368,-1.3666,-1.3667,-1.3669,-1.3689,-1.3693,-1.3697,-1.3645,-1.3645,-1.3645,0,0,-1.3408,-1.3422,-1.3445,-1.346,-1.3483,-1.3493,-1.3499,-1.3522,-1.3531,-1.3562,-1.3565,-1.3586,-1.3626,-1.3642,-1.3656,-1.3691,-1.3692,-1.3698,-1.3712,-1.3732,-1.3735,-1.3739,-1.3752,-1.3756,-1.3701,-1.3701,-1.3701,0,-1.3415,-1.3447,-1.3457,-1.3481,-1.3495,-1.3499,-1.3524,-1.3538,-1.3568,-1.3578,-1.3573,-1.3623,-1.3639,-1.3677,-1.3686,-1.3697,-1.3704,-1.3695,-1.3734,-1.3737,-1.3741,-1.3753,-1.3758,-1.3702,-1.3702,-1.3702,-1.3702,0,-1.3456,-1.3479,-1.3495,-1.3523,-1.3539,-1.3563,-1.3577,-1.3593,-1.3598,-1.361,-1.3642,-1.3662,-1.3689,-1.3698,-1.3703,-1.3738,-1.3734,-1.3731,-1.3721,-1.3746,-1.3758,-1.3763,-1.3703,-1.3702,-1.3702,-1.3702,0,0,-1.3482,-1.3516,-1.3522,-1.3535,-1.3561,-1.358,-1.3605,-1.3631,-1.3645,-1.3665,-1.3687,-1.3722,-1.372,-1.3736,-1.3743,-1.376,-1.3788,-1.3756,-1.3756,-1.3761,-1.3828,-1.383,-1.3835,-1.3789,-1.379,-1.3791,-1.3826,0,-1.3511,-1.3554,-1.3565,-1.3603,-1.3625,-1.363,-1.3652,-1.3671,-1.3683,-1.3705,-1.3719,-1.3743,-1.3738,-1.3748,-1.3765,-1.3781,-1.3801,-1.3778,-1.3811,-1.3812,-1.3804,-1.3841,-1.3843,-1.3875,-1.3831,-1.3832,-1.3832,0,-1.355,-1.3571,-1.3611,-1.3636,-1.3646,-1.3665,-1.3691,-1.3711,-1.3734,-1.3742,-1.376,-1.3766,-1.3794,-1.3784,-1.3823,-1.3807,-1.3821,-1.3831,-1.3833,-1.3836,-1.3823,-1.3846,-1.3886,-1.389,-1.384,-1.3839,-1.3839,0,-1.3566,-1.3605,-1.3634,-1.3645,-1.3674,-1.3688,-1.3701,-1.3723,-1.3739,-1.3762,-1.3773,-1.3799,-1.3814,-1.3834,-1.3848,-1.3839,-1.3887,-1.3877,-1.3895,-1.3895,-1.3904,-1.3903,-1.3947,-1.3914,-1.3914,-1.3913,-1.3913,0,-1.3597,-1.3621,-1.3641,-1.3659,-1.3687,-1.37,-1.3728,-1.3741,-1.3761,-1.3783,-1.379,-1.381,-1.3827,-1.385,-1.3862,-1.3893,-1.39,-1.3907,-1.391,-1.3907,-1.3906,-1.3916,-1.3914,-1.3915,-1.3914,-1.3914,-1.3914,0,-1.3618,-1.3633,-1.3665,-1.3691,-1.3698,-1.3718,-1.374,-1.3759,-1.3772,-1.3799,-1.3806,-1.3827,-1.3855,-1.3871,-1.3906,-1.3914,-1.3949,-1.3951,-1.3941,-1.3942,-1.3959,-1.3957,-1.4011,-1.4019,-1.398,-1.398,-1.3981,0,-1.3637,-1.3656,-1.3684,-1.3699,-1.3712,-1.3735,-1.3752,-1.3766,-1.3782,-1.3811,-1.3826,-1.3855,-1.3878,-1.3923,-1.3942,-1.3969,-1.3972,-1.3989,-1.3976,-1.3972,-1.3972,-1.3971,-1.3973,-1.399,-1.3991,-1.3991,-1.3991,0,-1.3669,-1.3675,-1.3698,-1.3724,-1.3743,-1.3764,-1.3785,-1.3797,-1.3814,-1.3833,-1.3862,-1.388,-1.3916,-1.3945,-1.3974,-1.3989,-1.3994,-1.3995,-1.4001,-1.3998,-1.3991,-1.3995,-1.3947,-1.3994,-1.3994,-1.3993,-1.3993,-1.3993,-1.369,-1.3707,-1.373,-1.3755,-1.3773,-1.3793,-1.3811,-1.3827,-1.3851,-1.3881,-1.3888,-1.3919,-1.3943,-1.3983,-1.3999,-1.4024,-1.4021,-1.4029,-1.4031,-1.4033,-1.4033,-1.3988,-1.4029,-1.4029,-1.4029,-1.4029,-1.4029,0,-1.3722,-1.3737,-1.3761,-1.379,-1.381,-1.3813,-1.3836,-1.3854,-1.388,-1.3902,-1.3925,-1.3959,-1.3987,-1.4009,-1.4038,-1.4054,-1.4057,-1.4061,-1.406,-1.4064,-1.4034,-1.4026,-1.4058,-1.4058,-1.4058,-1.4058,-1.4058,-1.4058,-1.3741,-1.3771,-1.3781,-1.3821,-1.3836,-1.3865,-1.3879,-1.3898,-1.3916,-1.3953,-1.3976,-1.399,-1.4012,-1.4044,-1.407,-1.4076,-1.4087,-1.4091,-1.4097,-1.4069,-1.4066,-1.4063,-1.4055,-1.4093,-1.4093,-1.4124,-1.4125,-1.4125]},{"header":{"parameterUnit":"m.s-1","parameterCategory":1,"la1":30.2991,"la2":30.254,"lo1":-89.0895,"lo2":-89.0444,"dy":0.0017,"dx":0.0017,"nx":28,"ny":28,"refTime":"2024-04-30T09:00:00:Z","depth":0,"parameterNumber":3,"parameterNumberName":"V-component_of_WINDS"},"data":[0,0,0,0,0,0,0,0,0,0,0,0,0,0,0,0,0,0,0,0,0,0,0,0,0,0,0,0,0,0,0,0,0,0,0,0,0,0,0,0,0,0,0,0,0,0,0,0,0,0,0,0,0,0,0,0,0,0,2.1627,2.1627,0,2.1638,2.1639,2.1639,2.1599,2.1598,2.1597,2.1596,2.1605,2.1607,2.1608,0,0,0,0,0,0,0,0,0,0,0,0,0,2.1571,2.1572,2.1627,2.1627,2.1628,2.1638,2.1639,2.1639,2.16,2.1598,2.1597,2.1595,2.1605,2.1607,2.1608,0,0,0,0,0,0,0,0,0,0,0,0,0,2.159,2.1572,2.1627,2.1609,2.1608,2.1638,2.1639,2.1639,2.16,2.1598,2.1596,2.1595,2.1604,2.1606,2.1608,2.1656,0,0,2.1614,2.1615,0,0,0,0,0,0,0,0,2.1589,2.1592,2.1612,2.1611,2.1609,2.1616,2.1622,2.1644,2.16,2.1603,2.1596,2.1594,2.161,2.1612,2.1617,2.1656,2.1657,2.1615,2.1616,2.1617,2.1617,0,0,0,0,0,0,0,2.1588,2.1591,2.1632,2.1612,2.1611,2.16,2.1601,2.1626,2.1616,2.1602,2.16,2.1602,2.1609,2.1616,2.1617,2.1657,2.1615,2.1616,2.1618,2.1618,2.1736,2.1738,0,0,0,0,0,0,2.1589,2.159,2.1631,2.1632,2.1595,2.1603,2.1604,2.1615,2.1616,2.1614,2.1603,2.16,2.1613,2.1615,2.1618,2.1674,2.1617,2.1619,2.162,2.1735,2.1737,2.1739,0,0,0,0,0,0,2.1588,2.1593,2.1631,2.161,2.1615,2.1606,2.1619,2.1616,2.1623,2.1616,2.1614,2.1612,2.1612,2.1615,2.1647,2.1674,2.162,2.1621,2.1732,2.1735,2.1738,2.1788,0,0,0,0,0,0,2.1586,2.1593,2.1611,2.1611,2.1616,2.1661,2.1621,2.1618,2.1627,2.1623,2.1624,2.1622,2.1611,2.1644,2.1649,2.1676,2.1623,2.173,2.1734,2.1737,2.1783,2.1792,2.1799,0,0,0,0,0,2.1584,2.1624,2.1612,2.1617,2.1639,2.1662,2.1665,2.1651,2.1629,2.1647,2.1643,2.1622,2.167,2.1648,2.1653,2.1681,2.1728,2.1733,2.1737,2.178,2.179,2.1799,0,0,0,0,0,0,2.1626,2.1624,2.1611,2.1651,2.1658,2.1656,2.1678,2.1662,2.1674,2.1669,2.1651,2.1652,2.1688,2.1687,2.1662,2.1727,2.1695,2.1701,2.1726,2.1736,2.1744,2.1743,2.1625,0,0,0,0,0,2.164,2.166,2.1657,2.1693,2.1697,2.1687,2.1697,2.1686,2.1691,2.1693,2.1691,2.1697,2.1713,2.1724,2.1739,2.1783,2.1783,2.1804,2.1812,2.1818,2.1824,2.1848,2.1858,2.1753,2.1753,2.1753,0,0,2.1669,2.167,2.1684,2.1702,2.1705,2.1726,2.169,2.1713,2.1728,2.1697,2.1728,2.1727,2.1731,2.177,2.1787,2.1771,2.1853,2.1824,2.1829,2.1831,2.1853,2.1863,2.1872,2.1756,2.1756,2.1755,0,0,2.1733,2.1736,2.1767,2.1772,2.1778,2.1771,2.1779,2.178,2.1778,2.1809,2.1786,2.1803,2.1832,2.1836,2.1843,2.1909,2.1891,2.1914,2.1955,2.1979,2.1987,2.1994,2.2019,2.2028,2.1919,2.192,2.192,0,2.1769,2.18,2.1785,2.1811,2.1819,2.1792,2.1824,2.1828,2.1839,2.1845,2.1827,2.1863,2.1864,2.1904,2.192,2.1926,2.1934,2.1915,2.1987,2.1994,2.2001,2.2024,2.2033,2.1922,2.1922,2.1922,2.1922,0,2.1844,2.1866,2.189,2.1902,2.1913,2.1942,2.193,2.1943,2.1931,2.1927,2.1959,2.1959,2.1974,2.1982,2.197,2.2021,2.2011,2.199,2.1958,2.2014,2.2036,2.2044,2.1927,2.1926,2.1925,2.1924,0,0,2.1935,2.1938,2.1948,2.1953,2.1958,2.1975,2.2002,2.2017,2.2029,2.2037,2.2059,2.2084,2.2065,2.2072,2.2061,2.2081,2.2135,2.2058,2.2058,2.2073,2.2192,2.2209,2.2219,2.2123,2.2125,2.2126,2.2192,0,2.1999,2.2046,2.2034,2.2081,2.2102,2.2076,2.21,2.2105,2.2102,2.2118,2.2113,2.2132,2.2105,2.2109,2.2129,2.2125,2.2159,2.212,2.2144,2.2145,2.2145,2.2231,2.2248,2.2311,2.2201,2.2202,2.2203,0,2.208,2.2092,2.2142,2.2145,2.2153,2.2174,2.2188,2.2204,2.2209,2.2205,2.2214,2.2198,2.2224,2.2191,2.2228,2.2201,2.221,2.221,2.2212,2.2214,2.2178,2.2236,2.233,2.234,2.2216,2.2215,2.2214,0,2.2143,2.2171,2.2205,2.2211,2.2214,2.223,2.2232,2.2236,2.2246,2.2257,2.2264,2.2278,2.2286,2.2297,2.2285,2.2262,2.2324,2.229,2.2322,2.2322,2.2336,2.2336,2.2434,2.2341,2.234,2.234,2.234,0,2.2216,2.2248,2.2234,2.2255,2.229,2.2274,2.2309,2.2308,2.2312,2.2332,2.231,2.2329,2.2312,2.233,2.2321,2.2353,2.2356,2.2354,2.2351,2.2356,2.2357,2.2363,2.2359,2.2343,2.2342,2.2342,2.2341,0,2.2292,2.2284,2.232,2.2321,2.2321,2.2347,2.2347,2.2367,2.2361,2.2387,2.2392,2.2384,2.2404,2.2393,2.2413,2.2407,2.2449,2.244,2.2447,2.2445,2.2478,2.2476,2.2584,2.2598,2.2495,2.2496,2.2497,0,2.234,2.2364,2.2368,2.2381,2.2384,2.2404,2.2415,2.2401,2.2413,2.2422,2.244,2.2458,2.2471,2.2504,2.2499,2.2515,2.2506,2.2543,2.2508,2.2513,2.2508,2.2507,2.251,2.2551,2.2552,2.2553,2.2554,0,2.2427,2.2422,2.2439,2.2454,2.2468,2.2479,2.2489,2.25,2.2486,2.25,2.2521,2.2531,2.2552,2.2571,2.2584,2.2585,2.2568,2.2565,2.2573,2.2579,2.2583,2.2583,2.2468,2.2562,2.2561,2.2561,2.256,2.256,2.2491,2.2512,2.2518,2.2538,2.2543,2.2553,2.2571,2.2569,2.2586,2.2603,2.2593,2.2617,2.2622,2.2638,2.2642,2.266,2.2646,2.2657,2.2661,2.2664,2.2669,2.2579,2.2663,2.2662,2.2662,2.2662,2.2662,0,2.2577,2.258,2.2599,2.2613,2.2629,2.2611,2.2621,2.2635,2.2656,2.2663,2.2677,2.2701,2.2719,2.2716,2.2732,2.2747,2.274,2.2752,2.2751,2.2752,2.2681,2.2673,2.2758,2.2758,2.2758,2.2758,2.2758,2.2758,2.2624,2.2659,2.2655,2.2692,2.2694,2.2718,2.2725,2.2734,2.2739,2.2767,2.2782,2.278,2.2783,2.28,2.2815,2.2814,2.2821,2.2837,2.2833,2.2766,2.2757,2.2748,2.274,2.2838,2.2838,2.2902,2.2903,2.2903]}]]